Satellite: NO-44
Catalog number: 26931
Epoch time:      11020.21934368
Element set:     659
Inclination:      067.0538 deg
RA of node:       004.7892 deg
Eccentricity:    0.0006789
Arg of perigee:   271.9678 deg
Mean anomaly:     088.0617 deg
Mean motion:   14.29630777 rev/day
Decay rate:       -1.2e-07 rev/day^2
Epoch rev:           48577
Checksum:              340

Satellite: SO-50
Catalog number: 27607
Epoch time:      11020.33638611
Element set:     370
Inclination:      064.5590 deg
RA of node:       056.8982 deg
Eccentricity:    0.0055574
Arg of perigee:   356.6557 deg
Mean anomaly:     003.4144 deg
Mean motion:   14.71632027 rev/day
Decay rate:       -6.0e-08 rev/day^2
Epoch rev:           43433
Checksum:              287

Satellite: CO-55
Catalog number: 27844
Epoch time:      11020.07689678
Element set:      26
Inclination:      098.7079 deg
RA of node:       030.9246 deg
Eccentricity:    0.0009099
Arg of perigee:   267.3881 deg
Mean anomaly:     092.6254 deg
Mean motion:   14.20762529 rev/day
Decay rate:        5.7e-07 rev/day^2
Epoch rev:           39188
Checksum:              342

Satellite: CO-57
Catalog number: 27848
Epoch time:      11020.56114553
Element set:     974
Inclination:      098.7137 deg
RA of node:       030.5446 deg
Eccentricity:    0.0009049
Arg of perigee:   271.1603 deg
Mean anomaly:     088.8546 deg
Mean motion:   14.20548790 rev/day
Decay rate:        5.5e-07 rev/day^2
Epoch rev:           39190
Checksum:              316

Satellite: AO-51
Catalog number: 28375
Epoch time:      11020.66995140
Element set:     876
Inclination:      098.0806 deg
RA of node:       007.0091 deg
Eccentricity:    0.0083691
Arg of perigee:   156.7664 deg
Mean anomaly:     203.7338 deg
Mean motion:   14.40720257 rev/day
Decay rate:        2.8e-07 rev/day^2
Epoch rev:           34482
Checksum:              306

Satellite: CP3
Catalog number: 31129
Epoch time:      11020.65292779
Element set:     777
Inclination:      097.9146 deg
RA of node:       053.2957 deg
Eccentricity:    0.0101312
Arg of perigee:   279.3046 deg
Mean anomaly:     079.6707 deg
Mean motion:   14.52365803 rev/day
Decay rate:       1.84e-06 rev/day^2
Epoch rev:           19942
Checksum:              317

Satellite: CO-65
Catalog number: 32785
Epoch time:      11019.25985041
Element set:    0893
Inclination:      097.8697 deg
RA of node:       085.8831 deg
Eccentricity:    0.0014224
Arg of perigee:   304.7641 deg
Mean anomaly:     055.2235 deg
Mean motion:   14.81808723 rev/day
Decay rate:        3.3e-07 rev/day^2
Epoch rev:           14748
Checksum:              324

Satellite: KKS-1
Catalog number: 33493
Epoch time:      11020.78679360
Element set:     236
Inclination:      098.1054 deg
RA of node:       147.4856 deg
Eccentricity:    0.0020426
Arg of perigee:   154.7886 deg
Mean anomaly:     205.4333 deg
Mean motion:   14.81290074 rev/day
Decay rate:       5.16e-06 rev/day^2
Epoch rev:           10769
Checksum:              300

Satellite: SOHLA-1
Catalog number: 33496
Epoch time:      11020.77726177
Element set:     312
Inclination:      098.0695 deg
RA of node:       132.2249 deg
Eccentricity:    0.0005895
Arg of perigee:   225.6998 deg
Mean anomaly:     134.3737 deg
Mean motion:   14.69549722 rev/day
Decay rate:        7.6e-07 rev/day^2
Epoch rev:           10683
Checksum:              327

Satellite: TISAT-1
Catalog number: 36799
Epoch time:      11020.79241799
Element set:     510
Inclination:      098.1222 deg
RA of node:       087.4891 deg
Eccentricity:    0.0016170
Arg of perigee:   036.9803 deg
Mean anomaly:     323.2496 deg
Mean motion:   14.80293893 rev/day
Decay rate:       2.87e-06 rev/day^2
Epoch rev:            2850
Checksum:              316

Satellite: STUDSAT
Catalog number: 36801
Epoch time:      11019.70446836
Element set:    0147
Inclination:      098.1264 deg
RA of node:       086.2510 deg
Eccentricity:    0.0014601
Arg of perigee:   028.4032 deg
Mean anomaly:     331.7963 deg
Mean motion:   14.79954064 rev/day
Decay rate:       8.34e-06 rev/day^2
Epoch rev:           02833
Checksum:              284

Satellite: RAX
Catalog number: 37223
Epoch time:      11019.85109331
Element set:    0058
Inclination:      071.9733 deg
RA of node:       006.1071 deg
Eccentricity:    0.0022144
Arg of perigee:   206.6527 deg
Mean anomaly:     153.3499 deg
Mean motion:   14.77220009 rev/day
Decay rate:       2.15e-06 rev/day^2
Epoch rev:           00897
Checksum:              265

Satellite: OOREOS
Catalog number: 37224
Epoch time:      11003.47313986
Element set:    0047
Inclination:      071.9731 deg
RA of node:       042.3045 deg
Eccentricity:    0.0021305
Arg of perigee:   233.7010 deg
Mean anomaly:     126.2182 deg
Mean motion:   14.76873402 rev/day
Decay rate:       1.90e-06 rev/day^2
Epoch rev:           00655
Checksum:              247

Satellite: NANOSALD
Catalog number: 37225
Epoch time:      11020.08293137
Element set:    0002
Inclination:      071.9753 deg
RA of node:       005.7427 deg
Eccentricity:    0.0021680
Arg of perigee:   201.8671 deg
Mean anomaly:     158.1355 deg
Mean motion:   14.77033912 rev/day
Decay rate:      -4.69e-06 rev/day^2
Epoch rev:           00011
Checksum:              255

